TimeMDT,TemperatureF,Dew PointF,Humidity,Sea Level PressureIn,VisibilityMPH,Wind Direction,Wind SpeedMPH,Gust SpeedMPH,PrecipitationIn,Events,Conditions,WindDirDegrees,DateUTC
12:15 AM,35.6,30.2,81,30.18,10.0,NNW,5.8,-,N/A,,Clear,330,2012-10-13 06:15:00
12:55 AM,37.4,30.2,75,30.16,10.0,NNW,8.1,-,N/A,,Clear,340,2012-10-13 06:55:00
1:15 AM,39.2,30.2,70,30.16,10.0,North,8.1,-,N/A,,Clear,350,2012-10-13 07:15:00
1:35 AM,42.8,30.2,61,30.17,10.0,North,10.4,-,N/A,,Clear,360,2012-10-13 07:35:00
1:55 AM,42.8,30.2,61,30.18,10.0,North,6.9,-,N/A,,Clear,350,2012-10-13 07:55:00
2:35 AM,37.4,30.2,75,30.18,10.0,NNW,8.1,-,N/A,,Clear,330,2012-10-13 08:35:00
2:55 AM,35.6,28.4,75,30.19,10.0,NNW,4.6,-,N/A,,Clear,330,2012-10-13 08:55:00
3:15 AM,33.8,28.4,81,30.18,10.0,North,4.6,-,N/A,,Clear,350,2012-10-13 09:15:00
3:35 AM,33.8,28.4,81,30.18,10.0,NW,5.8,-,N/A,,Clear,310,2012-10-13 09:35:00
4:15 AM,32.0,28.4,87,30.18,10.0,North,3.5,-,N/A,,Clear,350,2012-10-13 10:15:00
4:35 AM,32.0,28.4,87,30.20,10.0,NNW,5.8,-,N/A,,Clear,330,2012-10-13 10:35:00
4:55 AM,33.8,30.2,87,30.19,10.0,West,4.6,-,N/A,,Clear,280,2012-10-13 10:55:00
5:15 AM,32.0,28.4,87,30.19,10.0,NNW,3.5,-,N/A,,Clear,340,2012-10-13 11:15:00
5:35 AM,32.0,28.4,87,30.20,10.0,NW,4.6,-,N/A,,Clear,310,2012-10-13 11:35:00
5:55 AM,30.2,26.6,86,30.20,10.0,NW,4.6,-,N/A,,Clear,320,2012-10-13 11:55:00
6:15 AM,32.0,28.4,87,30.20,10.0,NNW,6.9,-,N/A,,Clear,330,2012-10-13 12:15:00
6:35 AM,32.0,28.4,87,30.20,10.0,NW,4.6,-,N/A,,Clear,320,2012-10-13 12:35:00
6:55 AM,30.2,28.4,93,30.20,10.0,NNW,6.9,-,N/A,,Clear,330,2012-10-13 12:55:00
7:15 AM,30.2,28.4,93,30.21,10.0,NNW,6.9,-,N/A,,Clear,330,2012-10-13 13:15:00
7:55 AM,33.8,30.2,87,30.22,10.0,NW,5.8,-,N/A,,Mostly Cloudy,310,2012-10-13 13:55:00
8:15 AM,37.4,32.0,81,30.22,10.0,WNW,5.8,-,N/A,,Overcast,300,2012-10-13 14:15:00
8:35 AM,41.0,32.0,70,30.23,10.0,North,6.9,-,N/A,,Overcast,10,2012-10-13 14:35:00
8:55 AM,41.0,32.0,70,30.24,10.0,NW,3.5,-,N/A,,Mostly Cloudy,320,2012-10-13 14:55:00
9:15 AM,42.8,33.8,70,30.24,10.0,NW,3.5,-,N/A,,Scattered Clouds,320,2012-10-13 15:15:00
9:35 AM,44.6,33.8,66,30.25,10.0,North,5.8,-,N/A,,Scattered Clouds,360,2012-10-13 15:35:00
9:55 AM,46.4,33.8,62,30.25,10.0,NNW,6.9,-,N/A,,Scattered Clouds,340,2012-10-13 15:55:00
10:15 AM,48.2,32.0,54,30.24,10.0,WNW,3.5,-,N/A,,Clear,300,2012-10-13 16:15:00
10:35 AM,50.0,32.0,50,30.24,10.0,NW,3.5,-,N/A,,Clear,310,2012-10-13 16:35:00
10:55 AM,51.8,32.0,47,30.22,10.0,Calm,Calm,-,N/A,,Clear,0,2012-10-13 16:55:00
11:15 AM,53.6,32.0,44,30.21,10.0,West,3.5,-,N/A,,Clear,270,2012-10-13 17:15:00
11:35 AM,57.2,30.2,36,30.20,10.0,NNW,15.0,21.9,N/A,,Clear,340,2012-10-13 17:35:00
11:55 AM,55.4,30.2,38,30.20,10.0,NW,12.7,18.4,N/A,,Clear,320,2012-10-13 17:55:00
12:15 PM,59.0,30.2,34,30.20,10.0,NW,9.2,16.1,N/A,,Clear,320,2012-10-13 18:15:00
12:55 PM,60.8,30.2,31,30.20,10.0,NNW,12.7,23.0,N/A,,Clear,340,2012-10-13 18:55:00
1:35 PM,60.8,32.0,34,30.20,10.0,NW,19.6,24.2,N/A,,Clear,320,2012-10-13 19:35:00
1:55 PM,60.8,30.2,31,30.19,10.0,North,17.3,25.3,N/A,,Clear,350,2012-10-13 19:55:00
2:15 PM,62.6,30.2,30,30.20,10.0,NNW,17.3,25.3,N/A,,Clear,340,2012-10-13 20:15:00
2:35 PM,62.6,30.2,30,30.20,10.0,NNW,19.6,27.6,N/A,,Clear,330,2012-10-13 20:35:00
2:55 PM,62.6,30.2,30,30.20,10.0,NNW,16.1,26.5,N/A,,Clear,330,2012-10-13 20:55:00
3:15 PM,62.6,32.0,32,30.20,10.0,NW,18.4,23.0,N/A,,Clear,320,2012-10-13 21:15:00
3:55 PM,62.6,32.0,32,30.20,10.0,NW,17.3,21.9,N/A,,Clear,310,2012-10-13 21:55:00
4:15 PM,62.6,32.0,32,30.19,10.0,NW,15.0,24.2,N/A,,Clear,310,2012-10-13 22:15:00
4:35 PM,62.6,32.0,32,30.19,10.0,WNW,18.4,-,N/A,,Clear,300,2012-10-13 22:35:00
4:55 PM,62.6,32.0,32,30.19,10.0,WNW,13.8,23.0,N/A,,Clear,300,2012-10-13 22:55:00
5:15 PM,62.6,32.0,32,30.20,10.0,NW,18.4,24.2,N/A,,Clear,310,2012-10-13 23:15:00
5:35 PM,62.6,32.0,32,30.20,10.0,NW,15.0,-,N/A,,Clear,320,2012-10-13 23:35:00
6:15 PM,60.8,32.0,34,30.21,10.0,WNW,15.0,19.6,N/A,,Clear,300,2012-10-14 00:15:00
6:55 PM,55.4,32.0,41,30.23,10.0,WNW,8.1,-,N/A,,Clear,300,2012-10-14 00:55:00
7:15 PM,51.8,32.0,47,30.24,10.0,WNW,6.9,-,N/A,,Clear,300,2012-10-14 01:15:00
7:35 PM,51.8,32.0,47,30.26,10.0,NW,4.6,-,N/A,,Clear,320,2012-10-14 01:35:00
8:15 PM,48.2,32.0,54,30.28,10.0,NW,3.5,-,N/A,,Clear,320,2012-10-14 02:15:00
8:35 PM,46.4,32.0,57,30.28,10.0,North,4.6,-,N/A,,Clear,10,2012-10-14 02:35:00
8:55 PM,42.8,30.2,61,30.28,10.0,NW,4.6,-,N/A,,Clear,310,2012-10-14 02:55:00
9:15 PM,44.6,32.0,61,30.29,10.0,WNW,5.8,-,N/A,,Clear,300,2012-10-14 03:15:00
9:55 PM,42.8,32.0,66,30.29,10.0,NW,10.4,-,N/A,,Clear,310,2012-10-14 03:55:00
10:15 PM,42.8,32.0,66,30.30,10.0,NW,4.6,-,N/A,,Clear,320,2012-10-14 04:15:00
10:35 PM,44.6,32.0,61,30.30,10.0,NW,8.1,-,N/A,,Clear,310,2012-10-14 04:35:00
11:15 PM,44.6,32.0,61,30.32,10.0,North,3.5,-,N/A,,Clear,350,2012-10-14 05:15:00
11:35 PM,41.0,32.0,70,30.31,10.0,NNW,5.8,-,N/A,,Clear,340,2012-10-14 05:35:00
11:55 PM,37.4,32.0,81,30.32,10.0,Calm,Calm,-,N/A,,Clear,0,2012-10-14 05:55:00